Simultaneous Nadir Overpasses (SNOs) Predictions

Prediction of SNOs between AQUA and GOES-15 Satellite Orbit:

Table of predicted SNOs for the next 14.0 days since TLE Epoch: 9/14/2013
Index Date Time (AQUA) AQUA Lat,Lon GOES-15 Lat,Lon Distance(km) Time Diff (sec)
1 09/14/2013 10:44:08 0.69,-137.05 0.36,-135.51 174.29 80
2 09/16/2013 10:31:58 0.07,-134.09 0.36,-135.51 160.41 80
3 09/16/2013 22:53:23 -1.15,-139.29 -0.34,-135.45 436.78 80
4 09/18/2013 10:19:48 -0.55,-131.14 0.36,-135.50 495.04 80
5 09/18/2013 22:41:13 -0.52,-136.34 -0.34,-135.44 102.06 80
6 09/20/2013 22:29:02 0.06,-133.38 -0.34,-135.43 232.42 80
7 09/21/2013 10:50:19 0.97,-138.56 0.32,-135.49 348.62 80
8 09/23/2013 10:38:08 0.37,-135.60 0.33,-135.47 14.91 80
9 09/25/2013 10:25:58 -0.30,-132.65 0.33,-135.45 318.45 80
10 09/25/2013 22:47:22 -0.82,-137.84 -0.30,-135.38 279.90 80
11 09/27/2013 22:35:11 -0.19,-134.89 -0.30,-135.35 52.80 80




NCC Satellite Simultaneous Nadir Overpasses (SNOs) Prediction Service
